• In Portugal
  • List of Countries
  • For 7 days
  • Water Temperature
  • Satellite Maps
  • Weather Map
  • Weather Widgets
  • user-avatar
    Login

    Hourly Weather Aracaju

    Today, 23 August, Wednesday

    Time Temperature Precipitation Wind Pressure Humidity
    00:00 +23°C° 0.2 mm 4 mps 762 mmHg 88%
    01:00 +23°C° 0.2 mm 4 mps 762 mmHg 88%
    02:00 +23°C° 0.2 mm 4 mps 762 mmHg 88%
    03:00 +23°C° 0.2 mm 4 mps 761 mmHg 88%
    04:00 +23°C° 0.2 mm 4 mps 761 mmHg 89%
    05:00 +23°C° 0.2 mm 4 mps 761 mmHg 89%
    06:00 +23°C° 0.2 mm 4 mps 761 mmHg 89%
    07:00 +23°C° 0.2 mm 4 mps 761 mmHg 89%
    08:00 +25°C° 0.2 mm 5 mps 762 mmHg 86%
    09:00 +26°C° 0.2 mm 5 mps 762 mmHg 83%
    10:00 +27°C° 0.2 mm 5 mps 763 mmHg 80%
    11:00 +27°C° 0.6 mm 5 mps 762 mmHg 80%
    12:00 +27°C° 0.6 mm 6 mps 762 mmHg 81%
    13:00 +27°C° 0.6 mm 6 mps 762 mmHg 82%
    14:00 +27°C° 0.7 mm 6 mps 762 mmHg 82%
    15:00 +27°C° 0.7 mm 6 mps 761 mmHg 82%
    16:00 +27°C° 0.7 mm 6 mps 761 mmHg 82%
    17:00 +26°C° 0.6 mm 6 mps 761 mmHg 84%
    18:00 +26°C° 0.6 mm 5 mps 761 mmHg 85%
    19:00 +25°C° 0.6 mm 5 mps 761 mmHg 87%
    20:00 +25°C° 0.6 mm 5 mps 761 mmHg 88%
    21:00 +25°C° 0.6 mm 5 mps 762 mmHg 88%
    22:00 +25°C° 0.6 mm 5 mps 762 mmHg 89%
    23:00 +25°C° 0.5 mm 5 mps 762 mmHg 89%

    Tomorrow, 24 August, Thursday

    Time Temperature Precipitation Wind Pressure Humidity
    00:00 +25°C° 0.5 mm 5 mps 762 mmHg 89%
    01:00 +23°C° 0.5 mm 5 mps 762 mmHg 90%
    02:00 +23°C° 0.5 mm 5 mps 761 mmHg 90%
    03:00 +23°C° 0.5 mm 5 mps 761 mmHg 90%
    04:00 +23°C° 0.5 mm 5 mps 760 mmHg 90%
    05:00 +23°C° 0.3 mm 5 mps 761 mmHg 90%
    06:00 +23°C° 0.3 mm 5 mps 761 mmHg 90%
    07:00 +23°C° 0.3 mm 5 mps 761 mmHg 90%
    08:00 +25°C° 0.4 mm 5 mps 762 mmHg 88%
    09:00 +26°C° 0.4 mm 5 mps 762 mmHg 86%
    10:00 +26°C° 0.4 mm 6 mps 763 mmHg 84%
    11:00 +26°C° 0.5 mm 6 mps 763 mmHg 83%
    12:00 +27°C° 0.5 mm 6 mps 762 mmHg 83%
    13:00 +27°C° 0.5 mm 6 mps 762 mmHg 82%
    14:00 +27°C° 0.4 mm 6 mps 762 mmHg 82%
    15:00 +27°C° 0.4 mm 5 mps 761 mmHg 82%
    16:00 +26°C° 0.4 mm 5 mps 761 mmHg 82%
    17:00 +26°C° 0.4 mm 5 mps 761 mmHg 84%
    18:00 +25°C° 0.4 mm 5 mps 761 mmHg 86%
    19:00 +25°C° 0.4 mm 5 mps 761 mmHg 89%
    20:00 +23°C° 0.5 mm 5 mps 762 mmHg 89%
    21:00 +23°C° 0.5 mm 5 mps 762 mmHg 90%
    22:00 +23°C° 0.5 mm 5 mps 763 mmHg 90%
    23:00 +23°C° 0.4 mm 5 mps 762 mmHg 90%

    Day after tomorrow, 25 August, Friday

    Time Temperature Precipitation Wind Pressure Humidity
    00:00 +23°C° 0.4 mm 5 mps 762 mmHg 90%
    01:00 +23°C° 0.4 mm 5 mps 762 mmHg 90%
    02:00 +23°C° 0.6 mm 5 mps 762 mmHg 89%
    03:00 +23°C° 0.6 mm 5 mps 761 mmHg 89%
    04:00 +23°C° 0.6 mm 5 mps 761 mmHg 89%
    05:00 +23°C° 0.4 mm 5 mps 761 mmHg 89%
    06:00 +23°C° 0.4 mm 5 mps 761 mmHg 89%
    07:00 +23°C° 0.4 mm 5 mps 762 mmHg 89%
    08:00 +25°C° 0.2 mm 5 mps 762 mmHg 85%
    09:00 +25°C° 0.2 mm 5 mps 763 mmHg 82%
    10:00 +26°C° 0.2 mm 5 mps 763 mmHg 79%
    11:00 +26°C° 0.1 mm 5 mps 763 mmHg 76%
    12:00 +27°C° 0.1 mm 5 mps 763 mmHg 74%
    13:00 +27°C° 0.1 mm 5 mps 762 mmHg 72%
    14:00 +27°C° 0 mm 5 mps 762 mmHg 70%
    15:00 +27°C° 0 mm 5 mps 761 mmHg 69%
    16:00 +27°C° 0 mm 6 mps 760 mmHg 67%
    17:00 +26°C° 0 mm 5 mps 761 mmHg 71%
    18:00 +25°C° 0 mm 5 mps 761 mmHg 75%
    19:00 +23°C° 0 mm 4 mps 761 mmHg 79%
    20:00 +23°C° 0 mm 4 mps 762 mmHg 80%
    21:00 +23°C° 0 mm 4 mps 762 mmHg 81%
    22:00 +23°C° 0 mm 4 mps 763 mmHg 82%
    23:00 +22°C° 0 mm 4 mps 763 mmHg 83%

    26 August, Saturday

    Time Temperature Precipitation Wind Pressure Humidity
    00:00 +22°C° 0 mm 4 mps 762 mmHg 83%
    01:00 +22°C° 0 mm 4 mps 762 mmHg 83%
    02:00 +22°C° 0 mm 4 mps 762 mmHg 83%
    03:00 +22°C° 0 mm 4 mps 761 mmHg 83%
    04:00 +22°C° 0 mm 3 mps 761 mmHg 83%
    05:00 +22°C° 0 mm 3 mps 761 mmHg 83%
    06:00 +22°C° 0 mm 3 mps 762 mmHg 83%
    07:00 +22°C° 0 mm 3 mps 762 mmHg 83%
    08:00 +23°C° 0 mm 4 mps 762 mmHg 78%
    09:00 +26°C° 0 mm 4 mps 763 mmHg 73%
    10:00 +27°C° 0 mm 4 mps 763 mmHg 68%
    11:00 +28°C° 0 mm 5 mps 763 mmHg 66%
    12:00 +28°C° 0 mm 5 mps 762 mmHg 64%
    13:00 +29°C° 0 mm 5 mps 762 mmHg 62%
    14:00 +28°C° 0 mm 5 mps 761 mmHg 63%
    15:00 +28°C° 0 mm 5 mps 761 mmHg 64%
    16:00 +28°C° 0 mm 5 mps 760 mmHg 65%
    17:00 +27°C° 0 mm 5 mps 761 mmHg 70%
    18:00 +26°C° 0 mm 4 mps 761 mmHg 76%
    19:00 +23°C° 0 mm 4 mps 761 mmHg 81%
    20:00 +23°C° 0 mm 4 mps 762 mmHg 83%
    21:00 +23°C° 0 mm 4 mps 762 mmHg 84%
    22:00 +23°C° 0 mm 4 mps 762 mmHg 85%
    23:00 +23°C° 0.3 mm 4 mps 762 mmHg 86%

    27 August, Sunday

    Time Temperature Precipitation Wind Pressure Humidity
    00:00 +23°C° 0.3 mm 4 mps 762 mmHg 87%
    01:00 +23°C° 0.3 mm 4 mps 761 mmHg 87%
    02:00 +23°C° 0.4 mm 4 mps 761 mmHg 87%
    03:00 +23°C° 0.4 mm 4 mps 761 mmHg 87%
    04:00 +23°C° 0.4 mm 4 mps 761 mmHg 87%
    05:00 +23°C° 0.5 mm 4 mps 761 mmHg 87%
    06:00 +23°C° 0.5 mm 4 mps 761 mmHg 87%
    07:00 +23°C° 0.5 mm 4 mps 762 mmHg 88%
    08:00 +23°C° 0.6 mm 4 mps 762 mmHg 85%
    09:00 +25°C° 0.6 mm 4 mps 762 mmHg 83%
    10:00 +26°C° 0.6 mm 5 mps 762 mmHg 81%
    11:00 +26°C° 0.4 mm 5 mps 762 mmHg 81%
    12:00 +26°C° 0.4 mm 5 mps 762 mmHg 80%
    13:00 +26°C° 0.4 mm 6 mps 761 mmHg 80%
    14:00 +26°C° 0.4 mm 6 mps 761 mmHg 80%
    15:00 +26°C° 0.4 mm 6 mps 761 mmHg 80%
    16:00 +26°C° 0.4 mm 6 mps 760 mmHg 80%
    17:00 +26°C° 0.2 mm 6 mps 761 mmHg 82%
    18:00 +25°C° 0.2 mm 5 mps 761 mmHg 85%
    19:00 +23°C° 0.2 mm 5 mps 761 mmHg 87%
    20:00 +23°C° 0.2 mm 5 mps 762 mmHg 88%
    21:00 +23°C° 0.2 mm 5 mps 762 mmHg 89%
    22:00 +23°C° 0.2 mm 5 mps 762 mmHg 89%
    23:00 +23°C° 0.3 mm 5 mps 762 mmHg 89%

    28 August, Monday

    Time Temperature Precipitation Wind Pressure Humidity
    00:00 +23°C° 0.3 mm 5 mps 762 mmHg 90%
    01:00 +23°C° 0.3 mm 5 mps 761 mmHg 90%
    02:00 +23°C° 0.4 mm 4 mps 761 mmHg 90%
    03:00 +23°C° 0.4 mm 4 mps 761 mmHg 91%
    04:00 +23°C° 0.4 mm 4 mps 761 mmHg 91%
    05:00 +23°C° 0.6 mm 4 mps 761 mmHg 91%
    06:00 +23°C° 0.6 mm 4 mps 761 mmHg 90%
    07:00 +23°C° 0.6 mm 4 mps 762 mmHg 90%
    08:00 +23°C° 0.6 mm 4 mps 762 mmHg 89%
    09:00 +25°C° 0.6 mm 4 mps 762 mmHg 87%
    10:00 +25°C° 0.6 mm 4 mps 763 mmHg 86%
    11:00 +26°C° 0.5 mm 4 mps 762 mmHg 84%
    12:00 +26°C° 0.5 mm 4 mps 762 mmHg 81%
    13:00 +27°C° 0.5 mm 5 mps 762 mmHg 79%
    14:00 +27°C° 0.3 mm 5 mps 761 mmHg 79%
    15:00 +27°C° 0.3 mm 5 mps 761 mmHg 79%
    16:00 +27°C° 0.3 mm 5 mps 760 mmHg 79%
    17:00 +26°C° 0.2 mm 5 mps 761 mmHg 82%
    18:00 +25°C° 0.2 mm 4 mps 761 mmHg 85%
    19:00 +25°C° 0.2 mm 4 mps 761 mmHg 88%
    20:00 +23°C° 0.2 mm 4 mps 762 mmHg 88%
    21:00 +24°C° 0.2 mm 3 mps 762 mmHg 88%
    22:00 +24°C° 0.2 mm 3 mps 762 mmHg 88%
    23:00 +24°C° 0.1 mm 3 mps 762 mmHg 88%
    Show more